Regional Weather Roundup
Issued by NWS

Home | Current Version | Previous Version | Graphics & Text | Print | Product List | Glossary On
Versions: 1 2 3 4 5 6 7 8 9 10 11 12 13 14 15 16 17 18 19 20 21 22 23 24 25 26 27 28 29 30 31 32 33 34 35 36 37 38 39 40 41 42 43 44 45 46 47 48 49 50
000
ASUS43 KMPX 211910
RWRMN
WEATHER ROUNDUP FOR MINNESOTA
NATIONAL WEATHER SERVICE TWIN CITIES/CHANHASSEN MN
100 PM CST SUN DEC 21 2014


NOTE: "FAIR" INDICATES FEW OR NO CLOUDS BELOW 12,000 FEET WITH NO
SIGNIFICANT WEATHER AND/OR OBSTRUCTIONS TO VISIBILITY. N/A MEANS
CURRENT SKY AND/OR WEATHER CONDITIONS ARE NOT AVAILABLE.

MNZ060>063-068>070-212000-
   Twin Cities Metro

CITY           SKY/WX    TMP DP  RH WIND       PRES   REMARKS
TWIN CITIES    LGT RAIN  35  34  96 SE10      29.78F FOG     WCI  27
ST PAUL        LGT RAIN  35  34  96 SE12      29.79F FOG     WCI  27
CRYSTAL        MIX PCPN  35  33  92 SE8       29.76F FOG     WCI  29
BLAINE         LGT SNOW  36  36 100 SE9       29.78F
LAKEVILLE      LGT RAIN  34  34 100 S8        29.78F WCI  27
EDEN PRAIRIE   CLOUDY    35  34  96 S8        29.76F FOG     WCI  29
SOUTH ST PAUL  CLOUDY    36  35  96 SE7       29.80F FOG
LAKE ELMO      LGT SNOW  34  34 100 S8        29.81F WCI  27
$$
MNZ001>005-007-008-013>017-022>024-027-028-212000-
   Northwest Minnesota

CITY           SKY/WX    TMP DP  RH WIND       PRES   REMARKS
BEMIDJI        CLOUDY    31  29  94 S12       29.67F FOG     WCI  21
HALLOCK        CLOUDY    30  30 100 CALM      29.63F FOG
ROSEAU         CLOUDY    32  27  80 S12       29.65F HAZE    WCI  23
WARROAD        CLOUDY    30  27  86 S9        29.66F FOG     WCI  22
THIEF RVR FALL CLOUDY    30  28  93 S14       29.65F WCI  20
CROOKSTON      CLOUDY    30  30 100 S18       29.66F FOG     WCI  18
FOSSTON        CLOUDY    30  28  93 SE9       29.65F FOG     WCI  22
DETROIT LAKES  CLOUDY    32  32 100 S20G25    29.65F FOG     WCI  20
MOORHEAD       CLOUDY    34  34 100 S17       29.66F FOG     WCI  23
PARK RAPIDS    CLOUDY    31  30  96 SE15      29.67F FOG     WCI  20
MAHNOMEN       CLOUDY    31  29  93 S9        29.64F WCI  23
$$
MNZ006-009>011-018-025>026-212000-
   North Central Minnesota

CITY           SKY/WX    TMP DP  RH WIND       PRES   REMARKS
BAUDETTE       CLOUDY    31  28  89 S8        29.68F WCI  23
FLAG ISLAND    SNOW      28  28 100 SE16      29.66F VSB 1/4 WCI  17
INTL FALLS     CLOUDY    31  28  89 S8        29.72F WCI  23
WASKISH        CLOUDY    32  30  93 S7        29.69F WCI  26
BIG FORK       CLOUDY    32  28  86 S9        29.71F FOG     WCI  24
LONGVILLE      CLOUDY    32  30  93 SE9       29.70F FOG     WCI  24
GRAND RAPIDS   CLOUDY    30  28  93 SE12G17   29.72F WCI  21
CRANE LAKE     CLOUDY    30  28  93 S6        29.78F WCI  24
ORR            CLOUDY    30  27  86 S9        29.72F FOG     WCI  22
COOK           CLOUDY    30  28  93 S6        29.75F FOG     WCI  24
WALKER         CLOUDY    30  29  96 SE6       29.68F FOG     WCI  24
$$
MNZ012-019>021-037-212000-
   Northeast Minnesota

CITY           SKY/WX    TMP DP  RH WIND       PRES   REMARKS
DULUTH         LGT SNOW  31  29  92 SE10      29.77F FOG     WCI  22
ELY            CLOUDY    30  28  93 S8        29.77F WCI  23
HIBBING        CLOUDY    32  28  85 VRB7      29.75F FOG     WCI  26
EVELETH        CLOUDY    32  32 100 SE8       29.77F FOG     WCI  25
DULUTH HARBOR  MIX PCPN  34  30  86 CALM      29.82F VSB 1
SILVER BAY     LGT SNOW  32  30  93 SE3       29.81F
GRAND MARAIS     N/A     35  31  85 S13       29.88F WCI  26
G MARAIS ARPRT LGT SNOW  28  25  86 SE10G18   29.83F WCI  19
$$
MNZ029>031-032-039>041-046>048-054>057-064-212000-
   West Central Minnesota

CITY           SKY/WX    TMP DP  RH WIND       PRES   REMARKS
FERGUS FALLS   CLOUDY    32  30  93 S17       29.68F FOG     WCI  21
WHEATON        CLOUDY    30  28  93 SE9       29.66F FOG     WCI  22
MORRIS         CLOUDY    34  32  93 S13       29.66F FOG     WCI  25
ALEXANDRIA     FOG       32  32 100 S10       29.68F VSB 1   WCI  24
ELBOW LAKE     CLOUDY    32  31  98 S17G23    29.65F FOG     WCI  20
WADENA         CLOUDY    30  30 100 SE12      29.67F FOG     WCI  21
GLENWOOD       CLOUDY    34  32  93 S12G17    29.69F FOG     WCI  25
APPLETON       CLOUDY    36  34  93 S14       29.66F FOG
BENSON         CLOUDY    34  34 100 S9        29.68F FOG     WCI  26
ORTONVILLE     CLOUDY    34  30  86 S10       29.65F FOG     WCI  26
MADISON        PTSUNNY   37  36  93 SE8       29.65F FOG
WILLMAR        FOG       36  34  93 SE12      29.71F VSB 1
$$
MNZ033>034-036-042>043-049>051-058-059-212000-
   Central Minnesota

CITY           SKY/WX    TMP DP  RH WIND       PRES   REMARKS
ST CLOUD       FOG       35  33  92 SE10      29.73F VSB 1/2 WCI  27
SAUK CENTRE    FOG       32  32 100 S9        29.70F VSB 3/4 WCI  24
PAYNESVILLE    FOG       31  32 100 E13       29.71F VSB 3/4 WCI  22
AITKIN         CLOUDY    36  30  80 SE7       29.72F HAZE
PINE RIVER     CLOUDY    32  32 100 SE12      29.74F FOG     WCI  23
BRAINERD       CLOUDY    32  32 100 SE8       29.72F FOG     WCI  25
STAPLES        FOG       30  30 100 SE7       29.69F VSB 1   WCI  23
LONG PRAIRIE   FOG       32  32 100 SE10      29.70F VSB 1/2 WCI  24
LITTLE FALLS   FOG       32  32 100 SE9       29.72F VSB 1   WCI  24
LITCHFIELD     CLOUDY    36  36 100 S8        29.72F FOG
BUFFALO        CLOUDY    35  33  95 SE9G17    29.75F FOG     WCI  27
MAPLE LAKE     CLOUDY    36  35  99 SE8G18    29.73F FOG
$$
MNZ037-044-045-052-053-212000-
   East Central Minnesota

CITY           SKY/WX    TMP DP  RH WIND       PRES   REMARKS
PRINCETON      CLOUDY    36  34  93 SE7       29.75F FOG
MORA           CLOUDY    32  30  93 SE8       29.78F WCI  25
CAMBRIDGE      CLOUDY    36  28  75 SE7       29.74F
RUSH CITY      CLOUDY    33  32  96 SE12G17   29.78F WCI  24
MOOSE LAKE     CLOUDY    32  32 100 SE6       29.75F FOG     WCI  26
HINCKLEY       CLOUDY    34  32  93 SE3       29.77F
CLOQUET        CLOUDY    32  30  93 SE6       29.77F FOG     WCI  26
MCGREGOR       CLOUDY    32  32 100 SE8       29.75F WCI  25
$$
MNZ071>073-080-081-089-090-097-098-212000-
   Southwest Minnesota

CITY           SKY/WX    TMP DP  RH WIND       PRES   REMARKS
MONTEVIDEO     CLOUDY    36  36 100 S6        29.68F FOG
GRANITE FALLS  CLOUDY    34  34  99 SE10      29.70F FOG     WCI  26
CANBY          CLOUDY    36  33  90 S7        29.65F
MARSHALL       CLOUDY    36  30  80 S14       29.67F
REDWOOD FALLS  MIX PCPN  35  34  96 SE7       29.71F FOG     WCI  29
OLIVIA         FOG       34  34 100 S10       29.70F VSB 1   WCI  26
PIPESTONE      FOG       34  34 100 S9        29.64F VSB 1/4 WCI  26
WINDOM         FOG       37  36  93 S12G18    29.69F VSB 3/4
WORTHINGTON    CLOUDY    36 -13  12 S16G22    29.68F VSB 1/2
JACKSON        FOG       36  36 100 S13G20    29.71F VSB 3/4
TRACY          CLOUDY    36  34  95 SW16      29.67F FOG
SLAYTON        FOG       33  33 100 S15       29.67F VSB 1/2 WCI  23
$$
MNZ065>067-074>077-082>085-091>093-212000-
   South Central Minnesota

CITY           SKY/WX    TMP DP  RH WIND       PRES   REMARKS
MANKATO        CLOUDY    36  32  87 S10G17    29.75F
NEW ULM        DRIZZLE   36  36 100 S13       29.72F
ST JAMES       CLOUDY    37  36  93 S14       29.73F FOG
FAIRMONT       CLOUDY    37  34  87 S14       29.73F
GLENCOE        CLOUDY    36  36 100 SE7       29.73F FOG
FARIBAULT      CLOUDY    36  36 100 S13G18    29.78F FOG
OWATONNA       DRIZZLE   36  34  93 S14G21    29.78F
WASECA         CLOUDY    36  36 100 S15G22    29.79F FOG
ALBERT LEA     DRZL/FOG  36  36 100 S15G22    29.77F VSB 3/4
$$
MNZ078>079-086>088-094>096-212000-
   Southeast Minnesota

CITY           SKY/WX    TMP DP  RH WIND       PRES   REMARKS
ROCHESTER      LGT RAIN  36  34  92 S22G29    29.81F FOG
RED WING       CLOUDY    37  36  93 S7        29.82F FOG
STANTON        LGT RAIN  37  34  91 S12       29.78F
DODGE CENTER   CLOUDY    36  36 100 S20G26    29.80F FOG
WINONA         CLOUDY    37  36  93 S6        29.89F FOG
AUSTIN         DRIZZLE   36  36 100 S16       29.80F
PRESTON        CLOUDY    35  34  95 S20G26    29.85F FOG     WCI  24
$$
ABBREVIATIONS USED IN REMARKS
   TC - TEMPERATURES IN CELSIUS
  WCI - WIND CHILL INDEX
   HX - HEAT INDEX
  VSB - VISIBILITY
$$



USA.gov is the U.S. government's official web portal to all federal, state and local government web resources and services.